| time (UTC) | temp F | wind direction | speed MPH | gust MPH | rain 1hr in | rain 24hr in | rain mn in | humidity % | barometer mb |
| 20260504173313 | 70 | 227 | 11.0 | 23.0 | 0.00 | 0.00 | 0.00 | 49 | 1010.6 |
| 20260504172812 | 70 | 236 | 9.0 | 17.0 | 0.00 | 0.00 | 0.00 | 52 | 1010.8 |
| 20260504172313 | 70 | 193 | 4.0 | 17.0 | 0.00 | 0.00 | 0.00 | 47 | 1010.6 |
| 20260504171808 | 70 | 227 | 5.0 | 15.0 | 0.00 | 0.00 | 0.00 | 48 | 1010.8 |
| 20260504171307 | 69 | 215 | 5.0 | 14.0 | 0.00 | 0.00 | 0.00 | 51 | 1010.9 |
| 20260504170805 | 69 | 221 | 7.0 | 19.0 | 0.00 | 0.00 | 0.00 | 50 | 1011.0 |
| 20260504170306 | 68 | 228 | 9.0 | 19.0 | 0.00 | 0.00 | 0.00 | 47 | 1011.1 |
| 20260504160255 | 67 | 209 | 9.0 | 17.0 | 0.00 | 0.00 | 0.00 | 51 | 1011.9 |
| 20260504150743 | 64 | 208 | 3.0 | 10.0 | 0.00 | 0.00 | 0.00 | 53 | 1012.4 |
| 20260504150242 | 64 | 241 | 4.0 | 11.0 | 0.00 | 0.00 | 0.00 | 53 | 1012.4 |
| 20260504141226 | 60 | 267 | 0.0 | 0.0 | 0.00 | 0.00 | 0.00 | 58 | 1013.0 |
| 20260504140726 | 60 | 103 | 0.0 | 0.0 | 0.00 | 0.00 | 0.00 | 59 | 1012.9 |
| 20260504140224 | 59 | 96 | 0.0 | 0.0 | 0.00 | 0.00 | 0.00 | 60 | 1013.1 |
| 20260504130212 | 53 | 121 | 0.0 | 0.0 | 0.00 | 0.00 | 0.00 | 69 | 1013.5 |
| 20260504120155 | 48 | 80 | 0.0 | 0.0 | 0.00 | 0.00 | 0.00 | 78 | 1013.6 |
| 20260504110636 | 42 | 205 | 0.0 | 0.0 | 0.00 | 0.00 | 0.00 | 85 | 1013.4 |
| 20260504110133 | 41 | 226 | 0.0 | 0.0 | 0.00 | 0.00 | 0.00 | 86 | 1013.5 |
| 20260504100611 | 38 | 232 | 0.0 | 0.0 | 0.00 | 0.00 | 0.00 | 85 | 1013.6 |
| 20260504100109 | 38 | 232 | 0.0 | 0.0 | 0.00 | 0.00 | 0.00 | 84 | 1013.7 |
| 20260504081827 | 43 | 231 | 0.0 | 0.0 | 0.00 | 0.00 | 0.00 | 75 | 1013.9 |
| 20260504081054 | 43 | 227 | 0.0 | 0.0 | 0.00 | 0.00 | 0.00 | 75 | 1014.0 |
| 20260504080556 | 43 | 227 | 0.0 | 0.0 | 0.00 | 0.00 | 0.00 | 75 | 1013.9 |
| 20260504050019 | 46 | 222 | 0.0 | 0.0 | 0.00 | 0.00 | 0.00 | 68 | 1014.0 |
| 20260504045516 | 46 | 208 | 0.0 | 0.0 | 0.00 | 0.00 | 0.00 | 67 | 1014.0 |
| 20260504045015 | 46 | 222 | 0.0 | 0.0 | 0.00 | 0.00 | 0.00 | 66 | 1014.0 |
| 20260504044513 | 46 | 224 | 0.0 | 0.0 | 0.00 | 0.00 | 0.00 | 67 | 1014.1 |
| 20260504044013 | 47 | 211 | 0.0 | 0.0 | 0.00 | 0.00 | 0.00 | 66 | 1014.1 |
| 20260504043739 | 47 | 226 | 0.0 | 0.0 | 0.00 | 0.00 | 0.00 | 65 | 1014.0 |
| 20260504043240 | 47 | 231 | 0.0 | 0.0 | 0.00 | 0.00 | 0.00 | 65 | 1014.0 |
| 20260504042508 | 47 | 215 | 0.0 | 0.0 | 0.00 | 0.00 | 0.00 | 65 | 1014.0 |
| 20260504042009 | 47 | 198 | 0.0 | 5.0 | 0.00 | 0.00 | 0.00 | 66 | 1014.0 |
| 20260504041507 | 47 | 198 | 0.0 | 5.0 | 0.00 | 0.00 | 0.00 | 64 | 1014.0 |
| 20260504041008 | 48 | 243 | 0.0 | 7.0 | 0.00 | 0.00 | 0.00 | 64 | 1014.1 |
| 20260504040502 | 48 | 230 | 1.0 | 7.0 | 0.00 | 0.00 | 0.00 | 64 | 1014.0 |
| 20260504040002 | 48 | 234 | 1.0 | 7.0 | 0.00 | 0.00 | 0.00 | 63 | 1014.0 |
| 20260504035734 | 48 | 242 | 1.0 | 7.0 | 0.00 | 0.00 | 0.00 | 63 | 1014.0 |
| 20260504035003 | 48 | 236 | 0.0 | 7.0 | 0.00 | 0.00 | 0.00 | 63 | 1013.8 |
| 20260504034503 | 48 | 220 | 1.0 | 7.0 | 0.00 | 0.00 | 0.00 | 62 | 1013.7 |
| 20260504034003 | 48 | 247 | 2.0 | 7.0 | 0.00 | 0.00 | 0.00 | 62 | 1013.7 |
| 20260504033502 | 48 | 242 | 3.0 | 8.0 | 0.00 | 0.00 | 0.00 | 62 | 1013.6 |
| 20260504033000 | 49 | 231 | 1.0 | 8.0 | 0.00 | 0.00 | 0.00 | 62 | 1013.7 |
| 20260504032728 | 49 | 242 | 0.0 | 0.0 | 0.00 | 0.00 | 0.00 | 62 | 1013.5 |
| 20260504031959 | 49 | 217 | 0.0 | 0.0 | 0.00 | 0.00 | 0.00 | 62 | 1013.7 |
| 20260504031730 | 49 | 226 | 0.0 | 0.0 | 0.00 | 0.00 | 0.00 | 63 | 1013.6 |
| 20260504031228 | 49 | 230 | 0.0 | 0.0 | 0.00 | 0.00 | 0.00 | 62 | 1013.5 |
| 20260504030456 | 49 | 254 | 0.0 | 0.0 | 0.00 | 0.00 | 0.00 | 62 | 1013.4 |
| 20260504025949 | 49 | 241 | 0.0 | 0.0 | 0.00 | 0.00 | 0.00 | 61 | 1013.5 |
| 20260504025450 | 49 | 246 | 0.0 | 0.0 | 0.00 | 0.00 | 0.00 | 61 | 1013.4 |
| 20260504025222 | 49 | 255 | 0.0 | 0.0 | 0.00 | 0.00 | 0.00 | 61 | 1013.4 |
| 20260504024451 | 49 | 244 | 0.0 | 0.0 | 0.00 | 0.00 | 0.00 | 61 | 1013.5 |
| 20260504023951 | 49 | 230 | 0.0 | 0.0 | 0.00 | 0.00 | 0.00 | 60 | 1013.5 |
| 20260504023452 | 49 | 230 | 0.0 | 0.0 | 0.00 | 0.00 | 0.00 | 60 | 1013.4 |
| 20260504022946 | 49 | 234 | 0.0 | 0.0 | 0.00 | 0.00 | 0.00 | 61 | 1013.5 |
| 20260504022447 | 49 | 202 | 0.0 | 0.0 | 0.00 | 0.00 | 0.00 | 62 | 1013.6 |
| 20260504022216 | 49 | 239 | 0.0 | 8.0 | 0.00 | 0.00 | 0.00 | 60 | 1013.6 |
| 20260504022101 | 50 | 239 | 0.0 | 8.0 | 0.00 | 0.00 | 0.00 | 61 | 1013.5 |
| 20260504020945 | 50 | 257 | 0.0 | 8.0 | 0.00 | 0.00 | 0.00 | 59 | 1013.5 |
| 20260504020445 | 50 | 259 | 1.0 | 8.0 | 0.00 | 0.00 | 0.00 | 59 | 1013.6 |
| 20260504015940 | 50 | 248 | 1.0 | 8.0 | 0.00 | 0.00 | 0.00 | 58 | 1013.5 |
| 20260504015441 | 50 | 265 | 0.0 | 0.0 | 0.00 | 0.00 | 0.00 | 58 | 1013.6 |
| 20260504014941 | 50 | 250 | 0.0 | 0.0 | 0.00 | 0.00 | 0.00 | 57 | 1013.5 |
| 20260504014441 | 50 | 238 | 0.0 | 0.0 | 0.00 | 0.00 | 0.00 | 58 | 1013.5 |
| 20260504013939 | 50 | 217 | 0.0 | 0.0 | 0.00 | 0.00 | 0.00 | 58 | 1013.5 |
| 20260504013439 | 51 | 248 | 0.0 | 0.0 | 0.00 | 0.00 | 0.00 | 58 | 1013.4 |
| 20260504012934 | 51 | 229 | 0.0 | 0.0 | 0.00 | 0.00 | 0.00 | 57 | 1013.5 |
| 20260504012706 | 51 | 238 | 0.0 | 0.0 | 0.00 | 0.00 | 0.00 | 56 | 1013.4 |
| 20260504011931 | 51 | 253 | 0.0 | 0.0 | 0.00 | 0.00 | 0.00 | 56 | 1013.3 |
| 20260504011433 | 52 | 255 | 0.0 | 0.0 | 0.00 | 0.00 | 0.00 | 54 | 1013.3 |
| 20260504010933 | 52 | 241 | 0.0 | 0.0 | 0.00 | 0.00 | 0.00 | 54 | 1013.3 |
| 20260504010434 | 52 | 242 | 0.0 | 0.0 | 0.00 | 0.00 | 0.00 | 53 | 1013.3 |
| 20260504005930 | 52 | 259 | 0.0 | 0.0 | 0.00 | 0.00 | 0.00 | 53 | 1013.3 |
| 20260504005428 | 52 | 260 | 0.0 | 0.0 | 0.00 | 0.00 | 0.00 | 54 | 1013.3 |
| 20260504004929 | 52 | 249 | 0.0 | 0.0 | 0.00 | 0.00 | 0.00 | 54 | 1013.3 |
| 20260504004701 | 52 | 248 | 0.0 | 0.0 | 0.00 | 0.00 | 0.00 | 53 | 1013.2 |
| 20260504004158 | 53 | 259 | 0.0 | 8.0 | 0.00 | 0.00 | 0.00 | 53 | 1013.1 |
| 20260504003657 | 53 | 273 | 0.0 | 8.0 | 0.00 | 0.00 | 0.00 | 53 | 1013.2 |
| 20260504003151 | 53 | 258 | 1.0 | 8.0 | 0.00 | 0.00 | 0.00 | 53 | 1013.1 |
| 20260504002421 | 53 | 261 | 1.0 | 8.0 | 0.00 | 0.00 | 0.00 | 53 | 1013.1 |
| 20260504001926 | 54 | 227 | 1.0 | 10.0 | 0.00 | 0.00 | 0.00 | 52 | 1013.0 |
| 20260504001921 | 53 | 267 | 0.0 | 0.0 | 0.00 | 0.00 | 0.00 | 52 | 1013.0 |
| 20260504000920 | 54 | 257 | 2.0 | 10.0 | 0.00 | 0.00 | 0.00 | 51 | 1012.9 |
| 20260504000421 | 55 | 263 | 1.0 | 8.0 | 0.00 | 0.00 | 0.00 | 51 | 1012.8 |
| 20260504000145 | 55 | 255 | 2.0 | 14.0 | 0.00 | 0.00 | 0.00 | 50 | 1012.8 |
| 20260503235414 | 55 | 273 | 4.0 | 14.0 | 0.00 | 0.00 | 0.00 | 49 | 1012.7 |
| 20260503235145 | 56 | 252 | 6.0 | 15.0 | 0.00 | 0.00 | 0.00 | 48 | 1012.6 |
| 20260503234415 | 56 | 277 | 4.0 | 15.0 | 0.00 | 0.00 | 0.00 | 47 | 1012.6 |
| 20260503233915 | 57 | 248 | 2.0 | 12.0 | 0.00 | 0.00 | 0.00 | 46 | 1012.6 |
| 20260503233416 | 57 | 254 | 4.0 | 17.0 | 0.00 | 0.00 | 0.00 | 46 | 1012.6 |
| 20260503232910 | 58 | 300 | 6.0 | 17.0 | 0.00 | 0.00 | 0.00 | 45 | 1012.5 |
| 20260503232411 | 58 | 260 | 6.0 | 17.0 | 0.00 | 0.00 | 0.00 | 44 | 1012.5 |
| 20260503231907 | 58 | 288 | 6.0 | 17.0 | 0.00 | 0.00 | 0.00 | 45 | 1012.5 |
| 20260503231409 | 58 | 239 | 8.0 | 17.0 | 0.00 | 0.00 | 0.00 | 44 | 1012.6 |
| 20260503230908 | 59 | 254 | 8.0 | 17.0 | 0.00 | 0.00 | 0.00 | 43 | 1012.4 |
| 20260503230409 | 59 | 295 | 8.0 | 17.0 | 0.00 | 0.00 | 0.00 | 42 | 1012.5 |
| 20260503225901 | 60 | 216 | 8.0 | 17.0 | 0.00 | 0.00 | 0.00 | 43 | 1012.3 |
| 20260503225401 | 60 | 267 | 9.0 | 17.0 | 0.00 | 0.00 | 0.00 | 40 | 1012.5 |
| 20260503224904 | 60 | 293 | 7.0 | 19.0 | 0.00 | 0.00 | 0.00 | 42 | 1012.4 |
| 20260503224400 | 60 | 277 | 5.0 | 19.0 | 0.00 | 0.00 | 0.00 | 40 | 1012.5 |
| 20260503223859 | 60 | 263 | 7.0 | 19.0 | 0.00 | 0.00 | 0.00 | 42 | 1012.4 |
| 20260503223358 | 60 | 263 | 9.0 | 19.0 | 0.00 | 0.00 | 0.00 | 41 | 1012.4 |
| 20260503222858 | 60 | 291 | 10.0 | 19.0 | 0.00 | 0.00 | 0.00 | 43 | 1012.3 |
| 20260503222359 | 60 | 268 | 11.0 | 19.0 | 0.00 | 0.00 | 0.00 | 40 | 1012.5 |
| 20260503221854 | 60 | 267 | 11.0 | 19.0 | 0.00 | 0.00 | 0.00 | 40 | 1012.4 |
| 20260503221354 | 61 | 286 | 11.0 | 19.0 | 0.00 | 0.00 | 0.00 | 42 | 1012.5 |
| 20260503220853 | 61 | 267 | 11.0 | 18.0 | 0.00 | 0.00 | 0.00 | 45 | 1012.5 |
| 20260503220353 | 60 | 280 | 10.0 | 18.0 | 0.00 | 0.00 | 0.00 | 40 | 1012.5 |
| 20260503215854 | 60 | 277 | 8.0 | 17.0 | 0.00 | 0.00 | 0.00 | 41 | 1012.5 |
| 20260503215355 | 60 | 245 | 8.0 | 17.0 | 0.00 | 0.00 | 0.00 | 42 | 1012.5 |
| 20260503214849 | 60 | 298 | 11.0 | 20.0 | 0.00 | 0.00 | 0.00 | 45 | 1012.5 |
| 20260503214349 | 61 | 248 | 10.0 | 20.0 | 0.00 | 0.00 | 0.00 | 42 | 1012.5 |
| 20260503213849 | 61 | 257 | 9.0 | 20.0 | 0.00 | 0.00 | 0.00 | 44 | 1012.4 |
| 20260503213350 | 61 | 268 | 10.0 | 20.0 | 0.00 | 0.00 | 0.00 | 44 | 1012.3 |
| 20260503212851 | 61 | 219 | 11.0 | 22.0 | 0.00 | 0.00 | 0.00 | 43 | 1012.3 |
| 20260503212617 | 61 | 263 | 10.0 | 22.0 | 0.00 | 0.00 | 0.00 | 43 | 1012.3 |
| 20260503211847 | 61 | 277 | 9.0 | 21.0 | 0.00 | 0.00 | 0.00 | 44 | 1012.3 |
| 20260503211345 | 61 | 238 | 9.0 | 23.0 | 0.00 | 0.00 | 0.00 | 44 | 1012.2 |
| 20260503210845 | 61 | 321 | 11.0 | 23.0 | 0.00 | 0.00 | 0.00 | 44 | 1012.4 |
| 20260503210346 | 61 | 282 | 11.0 | 22.0 | 0.00 | 0.00 | 0.00 | 45 | 1012.3 |
| 20260503205846 | 61 | 240 | 9.0 | 22.0 | 0.00 | 0.00 | 0.00 | 46 | 1012.3 |
| 20260503205341 | 61 | 294 | 10.0 | 24.0 | 0.00 | 0.00 | 0.00 | 40 | 1012.3 |
| 20260503204842 | 61 | 275 | 9.0 | 24.0 | 0.00 | 0.00 | 0.00 | 43 | 1012.3 |
| 20260503204341 | 61 | 242 | 8.0 | 18.0 | 0.00 | 0.00 | 0.00 | 46 | 1012.3 |
| 20260503204113 | 60 | 281 | 8.0 | 17.0 | 0.00 | 0.00 | 0.00 | 43 | 1012.3 |
| 20260503203341 | 61 | 296 | 9.0 | 16.0 | 0.00 | 0.00 | 0.00 | 45 | 1012.4 |
| 20260503202843 | 61 | 301 | 9.0 | 16.0 | 0.00 | 0.00 | 0.00 | 41 | 1012.3 |
| 20260503202337 | 61 | 237 | 10.0 | 19.0 | 0.00 | 0.00 | 0.00 | 45 | 1012.4 |
| 20260503201837 | 60 | 255 | 11.0 | 19.0 | 0.00 | 0.00 | 0.00 | 44 | 1012.4 |
| 20260503201335 | 60 | 268 | 10.0 | 19.0 | 0.00 | 0.00 | 0.00 | 44 | 1012.4 |
| 20260503201107 | 60 | 298 | 10.0 | 21.0 | 0.00 | 0.00 | 0.00 | 46 | 1012.5 |
| 20260503200336 | 60 | 239 | 11.0 | 21.0 | 0.00 | 0.00 | 0.00 | 44 | 1012.4 |
| 20260503195836 | 60 | 281 | 12.0 | 21.0 | 0.00 | 0.00 | 0.00 | 41 | 1012.5 |
| 20260503195337 | 60 | 214 | 13.0 | 22.0 | 0.00 | 0.00 | 0.00 | 45 | 1012.5 |
| 20260503194836 | 60 | 265 | 11.0 | 22.0 | 0.00 | 0.00 | 0.00 | 48 | 1012.5 |
| 20260503194602 | 59 | 232 | 11.0 | 30.0 | 0.00 | 0.00 | 0.00 | 47 | 1012.7 |
| 20260503194101 | 59 | 290 | 11.0 | 30.0 | 0.00 | 0.00 | 0.00 | 44 | 1012.8 |
| 20260503193331 | 59 | 296 | 11.0 | 21.0 | 0.00 | 0.00 | 0.00 | 42 | 1012.8 |
| 20260503192830 | 58 | 289 | 12.0 | 22.0 | 0.00 | 0.00 | 0.00 | 46 | 1013.0 |
| 20260503192330 | 58 | 311 | 8.0 | 22.0 | 0.00 | 0.00 | 0.00 | 46 | 1012.9 |
| 20260503191830 | 58 | 282 | 7.0 | 17.0 | 0.00 | 0.00 | 0.00 | 48 | 1013.0 |
| 20260503191324 | 58 | 336 | 10.0 | 17.0 | 0.00 | 0.00 | 0.00 | 43 | 1013.1 |
| 20260503190825 | 58 | 315 | 10.0 | 17.0 | 0.00 | 0.00 | 0.00 | 44 | 1013.2 |
| 20260503190325 | 58 | 210 | 6.0 | 18.0 | 0.00 | 0.00 | 0.00 | 48 | 1013.2 |
| 20260503190056 | 57 | 260 | 7.0 | 18.0 | 0.00 | 0.00 | 0.00 | 46 | 1013.3 |
| 20260503185325 | 57 | 283 | 8.0 | 18.0 | 0.00 | 0.00 | 0.00 | 44 | 1013.5 |
| 20260503184825 | 57 | 259 | 5.0 | 18.0 | 0.00 | 0.00 | 0.00 | 47 | 1013.4 |
| 20260503184318 | 56 | 269 | 7.0 | 17.0 | 0.00 | 0.00 | 0.00 | 42 | 1013.4 |
| 20260503183818 | 57 | 319 | 7.0 | 20.0 | 0.00 | 0.00 | 0.00 | 43 | 1013.6 |
| 20260503183318 | 57 | 270 | 9.0 | 20.0 | 0.00 | 0.00 | 0.00 | 44 | 1013.6 |
| 20260503182818 | 57 | 239 | 10.0 | 23.0 | 0.00 | 0.00 | 0.00 | 45 | 1013.7 |
| 20260503182319 | 57 | 292 | 11.0 | 23.0 | 0.00 | 0.00 | 0.00 | 46 | 1013.6 |
| 20260503182048 | 57 | 277 | 13.0 | 24.0 | 0.00 | 0.00 | 0.00 | 42 | 1013.8 |
| 20260503181311 | 57 | 281 | 14.0 | 24.0 | 0.00 | 0.00 | 0.00 | 42 | 1013.7 |
| 20260503180812 | 57 | 275 | 12.0 | 22.0 | 0.00 | 0.00 | 0.00 | 45 | 1013.8 |
| 20260503180313 | 57 | 246 | 11.0 | 21.0 | 0.00 | 0.00 | 0.00 | 48 | 1013.8 |
| 20260503175812 | 56 | 312 | 11.0 | 20.0 | 0.00 | 0.00 | 0.00 | 48 | 1013.7 |
| 20260503175312 | 56 | 315 | 11.0 | 20.0 | 0.00 | 0.00 | 0.00 | 45 | 1013.8 |
| 20260503174811 | 56 | 293 | 12.0 | 27.0 | 0.00 | 0.00 | 0.00 | 43 | 1014.0 |
| 20260503174306 | 57 | 269 | 10.0 | 27.0 | 0.00 | 0.00 | 0.00 | 56 | 1013.8 |
| 20260503173806 | 57 | 250 | 10.0 | 21.0 | 0.00 | 0.00 | 0.00 | 51 | 1014.0 |